FW4376 Weather Reports


time (UTC)temp
F
wind
direction
speed
knots
gust
knots
rain 1hr
in
rain 24hr
in
rain mn
in
humidity
%
barometer
mb
20260507183047 73 298 1.7 4.3 0.00 0.00 0.00 57 1017.7
20260507181542 72 11 0.9 4.3 0.00 0.00 0.00 57 1017.9
20260507180040 72 223 0.9 3.5 0.00 0.00 0.00 59 1018.1
20260507174535 70 111 0.9 4.3 0.00 0.00 0.00 59 1018.3
20260507173037 70 247 0.0 5.2 0.00 0.00 0.00 59 1018.5
20260507171534 71 110 0.9 3.5 0.00 0.00 0.00 60 1019.1
20260507170032 71 41 0.0 3.5 0.00 0.00 0.00 61 1019.3
20260507164531 70 233 0.9 3.5 0.00 0.00 0.00 60 1019.5
20260507163036 69 80 0.0 2.6 0.00 0.00 0.00 61 1019.7
20260507161535 68 112 0.0 2.6 0.00 0.00 0.00 64 1019.8
20260507160038 67 121 0.9 2.6 0.00 0.00 0.00 64 1019.7
20260507154524 67 3 1.7 3.5 0.00 0.01 0.00 65 1020.0
20260507153022 67 359 0.0 4.3 0.00 0.01 0.00 66 1020.1
20260507151519 66 212 0.9 3.5 0.00 0.01 0.00 68 1020.1
20260507150020 66 13 0.0 2.6 0.00 0.01 0.00 69 1020.3
20260507144526 65 167 0.0 2.6 0.00 0.01 0.00 72 1020.6
20260507143013 64 273 0.0 1.7 0.00 0.01 0.00 77 1020.6
20260507141515 62 96 0.0 2.6 0.00 0.01 0.00 79 1020.6
20260507140006 61 246 0.0 4.3 0.00 0.01 0.00 82 1021.0
20260507134600 59 250 0.0 1.7 0.00 0.01 0.00 89 1021.1
20260507133101 57 13 0.0 2.6 0.00 0.01 0.00 92 1021.1
20260507131554 55 233 0.0 0.9 0.00 0.01 0.00 94 1020.9
20260507130104 54 323 0.0 1.7 0.00 0.01 0.00 94 1021.0
20260507124613 53 243 0.0 0.9 0.00 0.01 0.00 94 1020.6
20260507123049 52 269 0.0 0.9 0.00 0.01 0.00 94 1020.6
20260507121547 51 239 0.0 0.9 0.00 0.01 0.00 94 1020.4
20260507120046 50 239 0.0 0.9 0.00 0.01 0.00 94 1020.1
20260507114605 50 240 0.0 0.9 0.00 0.01 0.00 93 1019.8
20260507113044 50 240 0.0 0.9 0.00 0.01 0.00 93 1020.0
20260507111543 50 269 0.0 0.9 0.00 0.01 0.00 93 1019.8
20260507110044 51 295 0.0 0.9 0.00 0.01 0.00 93 1018.9
20260507104542 50 334 0.0 0.9 0.00 0.01 0.00 93 1018.6
20260507103034 50 21 0.0 0.9 0.00 0.01 0.00 93 1018.3
20260507101533 51 22 0.0 0.0 0.00 0.01 0.00 92 1018.4
20260507100030 51 22 0.0 0.9 0.00 0.01 0.00 92 1018.3
20260507094529 51 21 0.0 0.0 0.00 0.01 0.00 92 1018.1
20260507093035 51 21 0.0 0.9 0.00 0.01 0.00 92 1018.1
20260507091537 52 27 0.0 0.0 0.00 0.01 0.00 92 1018.1
20260507090023 52 27 0.0 0.9 0.00 0.01 0.00 92 1018.0
20260507084525 52 33 0.0 0.9 0.00 0.01 0.00 92 1017.9
20260507083021 53 352 0.0 0.9 0.00 0.01 0.00 92 1017.9
20260507081521 53 15 0.0 1.7 0.00 0.01 0.00 92 1017.6
20260507080018 53 54 0.0 1.7 0.00 0.01 0.00 92 1017.6
20260507074517 53 339 0.0 1.7 0.00 0.01 0.00 91 1017.6
20260507073016 53 18 0.0 1.7 0.00 0.01 0.00 91 1017.5
20260507071515 54 357 0.0 0.9 0.00 0.01 0.00 91 1017.6
20260507070008 54 92 0.0 1.7 0.00 0.01 0.00 90 1017.5
20260507064503 54 97 0.0 1.7 0.00 0.01 0.00 90 1017.5
20260507063004 55 86 0.0 1.7 0.00 0.01 0.00 89 1017.4
20260507061602 55 109 0.0 1.7 0.00 0.01 0.00 89 1017.3
20260507060059 55 110 0.0 1.7 0.00 0.01 0.00 88 1017.3
20260507054557 55 202 0.0 1.7 0.00 0.01 0.00 87 1017.3
20260507053055 56 78 0.0 3.5 0.00 0.01 0.00 86 1017.4
20260507051555 56 102 0.9 4.3 0.00 0.01 0.00 85 1017.5
20260507050049 57 340 0.9 3.5 0.00 0.01 0.00 84 1017.6
20260507044552 57 82 0.0 3.5 0.00 0.01 0.01 83 1017.5
20260507043050 57 25 0.9 3.5 0.00 0.01 0.01 83 1017.9
20260507041548 57 6 0.0 2.6 0.00 0.01 0.01 83 1017.9
20260507040046 57 80 0.0 2.6 0.00 0.01 0.01 83 1017.9
20260507034547 58 88 0.0 2.6 0.00 0.01 0.01 84 1017.9
20260507033046 58 94 0.9 4.3 0.00 0.01 0.01 84 1017.7
20260507031544 58 76 1.7 3.5 0.00 0.01 0.01 85 1017.5
20260507030043 58 104 0.0 4.3 0.00 0.01 0.01 85 1017.1
20260507024539 58 91 0.9 4.3 0.00 0.01 0.01 85 1016.9
20260507023037 58 15 0.0 2.6 0.00 0.01 0.01 86 1016.7
20260507021537 58 271 0.0 2.6 0.00 0.01 0.01 87 1016.3
20260507020041 58 286 0.9 6.1 0.00 0.01 0.01 87 1016.1
20260507014532 58 133 0.0 2.6 0.00 0.01 0.01 86 1015.7
20260507013045 58 63 1.7 4.3 0.00 0.01 0.01 86 1015.5
20260507011533 58 113 0.0 3.5 0.00 0.01 0.01 86 1015.1
20260507010036 58 357 0.0 1.7 0.00 0.01 0.01 86 1015.0
20260507004529 58 276 0.0 2.6 0.00 0.05 0.01 86 1015.0
20260507003029 58 297 0.9 3.5 0.00 0.05 0.01 86 1014.6
20260507001530 58 117 0.9 3.5 0.00 0.05 0.01 86 1014.8
20260507000027 58 30 0.9 5.2 0.00 0.05 0.01 85 1014.5
20260506234534 58 89 0.9 3.5 0.00 0.05 0.01 85 1014.5
20260506233038 58 88 0.9 5.2 0.00 0.05 0.01 84 1014.2
20260506231529 58 160 0.9 3.5 0.00 0.05 0.01 84 1014.0
20260506230027 58 105 0.9 3.5 0.00 0.05 0.01 85 1014.2
20260506224523 58 109 0.9 4.3 0.00 0.05 0.01 86 1014.0
20260506223023 58 28 0.9 2.6 0.00 0.05 0.01 86 1013.9
20260506221522 59 111 0.9 4.3 0.00 0.05 0.01 85 1013.6
20260506220028 59 131 0.9 4.3 0.00 0.05 0.01 81 1013.4
20260506214521 60 45 0.9 4.3 0.00 0.05 0.01 80 1013.7
20260506213020 60 53 0.9 4.3 0.00 0.05 0.01 80 1013.5
20260506211526 61 75 0.0 3.5 0.00 0.05 0.01 79 1013.7
20260506210028 61 15 0.9 3.5 0.00 0.05 0.01 79 1013.5
20260506204519 61 52 1.7 5.2 0.00 0.05 0.01 79 1013.8
20260506203018 60 242 0.9 3.5 0.00 0.05 0.01 81 1013.8
20260506201518 59 41 0.9 2.6 0.00 0.05 0.01 83 1014.3
20260506200032 59 63 0.0 4.3 0.00 0.05 0.01 82 1014.9
20260506194517 58 282 0.9 5.2 0.00 0.05 0.01 83 1013.7
20260506193015 58 257 0.0 4.3 0.00 0.05 0.01 83 1014.3
20260506191515 58 128 0.0 4.3 0.00 0.05 0.01 83 1014.5
20260506190013 58 93 0.0 2.6 0.00 0.05 0.01 82 1014.1
20260506184513 58 37 0.0 2.6 0.00 0.05 0.01 82 1014.3